Precipitable_Water
1.72 1.68 1.71 1.65 1.56 1.48 1.41 1.33 1.21 1.15 1.07 1.10 1.03 1.01 0.98 0.98 0.97 0.95 0.95 0.96 0.97 1.00 1.03 1.02 0.96 0.87 0.78 0.73 0.68 0.68 0.75 0.73
1.68 1.65 1.57 1.46 1.39 1.37 1.34 1.31 1.23 1.11 1.13 1.10 1.07 1.01 0.99 1.00 0.95 0.97 0.99 1.00 1.01 1.04 1.05 1.03 0.98 0.85 0.73 0.67 0.65 0.69 0.69 0.67
1.51 1.47 1.44 1.40 1.46 1.42 1.38 1.29 1.10 1.06 1.08 1.05 0.96 1.00 1.00 0.97 1.03 1.00 0.99 1.02 1.05 1.05 1.03 1.00 0.92 0.77 0.70 0.64 0.65 0.61 0.59 0.59
1.37 1.40 1.40 1.40 1.44 1.35 1.28 1.20 1.15 1.14 1.06 1.05 1.04 1.00 1.02 1.04 1.00 0.98 1.01 1.04 1.03 1.03 0.97 0.97 0.90 0.76 0.69 0.63 0.58 0.54 0.48 0.45
1.39 1.40 1.40 1.41 1.39 1.35 1.26 1.21 1.20 1.14 1.08 1.02 1.03 1.06 1.00 0.98 0.95 0.99 1.05 1.05 1.01 0.99 1.00 0.95 0.86 0.72 0.65 0.60 0.54 0.49 0.45 0.43
1.36 1.35 1.29 1.27 1.20 1.13 1.11 1.14 1.07 0.99 1.05 1.04 1.02 0.99 1.00 0.99 1.01 1.09 1.08 1.08 1.05 1.02 0.98 0.88 0.79 0.68 0.62 0.57 0.51 0.46 0.44 0.42
1.29 1.35 1.24 1.16 1.15 1.22 1.20 1.08 0.99 1.01 1.02 1.00 1.00 0.98 0.96 1.00 1.09 1.11 1.09 1.07 1.01 0.93 0.86 0.79 0.67 0.58 0.57 0.53 0.48 0.46 0.45 0.49
1.28 1.28 1.25 1.19 1.13 1.11 1.03 1.00 0.99 0.98 0.98 0.98 0.97 0.96 1.01 1.12 1.14 1.11 1.08 1.02 0.92 0.85 0.80 0.74 0.59 0.57 0.56 0.52 0.47 0.45 0.47 0.50
1.14 1.14 1.14 1.06 0.99 0.98 0.98 0.95 0.95 0.92 0.95 0.99 0.99 1.07 1.14 1.16 1.14 1.12 1.07 0.96 0.89 0.85 0.80 0.70 0.57 0.55 0.52 0.50 0.48 0.46 0.45 0.44
1.04 1.00 0.99 0.97 0.93 0.92 0.92 0.92 0.89 0.88 0.98 1.11 1.22 1.20 1.19 1.18 1.17 1.11 1.01 0.92 0.85 0.81 0.76 0.64 0.57 0.53 0.51 0.51 0.52 0.50 0.48 0.47
0.90 0.87 0.82 0.91 0.88 0.79 0.83 0.86 0.88 0.98 1.13 1.22 1.28 1.37 1.32 1.26 1.16 1.09 0.97 0.87 0.82 0.79 0.72 0.61 0.56 0.54 0.53 0.59 0.60 0.54 0.53 0.50
0.89 0.85 0.87 0.94 0.91 0.82 0.81 0.93 0.98 1.06 1.12 1.18 1.24 1.29 1.28 1.20 1.14 1.06 0.93 0.85 0.82 0.78 0.68 0.61 0.59 0.61 0.60 0.61 0.63 0.60 0.60 0.60
0.86 0.84 0.90 0.97 0.93 0.79 0.77 0.80 0.90 0.97 1.10 1.21 1.22 1.28 1.29 1.23 1.12 0.99 0.90 0.84 0.81 0.78 0.66 0.62 0.64 0.70 0.65 0.63 0.66 0.64 0.63 0.60
0.90 0.94 0.97 0.96 0.93 0.84 0.81 0.81 0.92 0.99 1.10 1.13 1.24 1.29 1.29 1.23 1.07 0.94 0.89 0.85 0.80 0.76 0.67 0.66 0.71 0.71 0.64 0.64 0.57 0.56 0.60 0.62
0.92 0.97 1.01 1.01 1.07 1.00 0.92 0.91 0.96 0.95 1.02 1.10 1.25 1.32 1.28 1.19 1.08 0.96 0.91 0.88 0.81 0.78 0.73 0.71 0.69 0.73 0.72 0.64 0.57 0.52 0.52 0.54
0.94 0.98 1.03 1.06 1.09 1.03 0.96 0.85 0.83 0.94 1.03 1.14 1.24 1.30 1.26 1.22 1.12 1.07 0.95 0.91 0.82 0.80 0.79 0.75 0.73 0.68 0.73 0.73 0.72 0.63 0.52 0.45
0.97 0.98 1.01 1.06 1.07 1.10 1.07 0.97 0.91 0.99 1.11 1.16 1.24 1.28 1.26 1.22 1.16 1.05 0.97 0.95 0.87 0.83 0.79 0.75 0.74 0.71 0.72 0.71 0.69 0.65 0.60 0.51
1.03 1.05 1.05 1.09 1.11 1.11 1.11 1.11 1.08 1.08 1.06 1.11 1.17 1.23 1.22 1.17 1.10 1.06 1.01 0.94 0.88 0.85 0.81 0.78 0.77 0.79 0.79 0.75 0.64 0.57 0.49 0.45
1.01 1.05 1.03 1.09 1.15 1.18 1.20 1.23 1.23 1.19 1.15 1.15 1.13 1.10 1.11 1.09 1.12 1.07 1.01 0.96 0.89 0.86 0.80 0.79 0.81 0.77 0.75 0.65 0.63 0.57 0.51 0.46
1.00 1.00 1.02 1.07 1.15 1.14 1.19 1.23 1.26 1.21 1.16 1.16 1.18 1.14 1.12 1.19 1.15 1.08 1.02 0.95 0.90 0.87 0.81 0.86 0.84 0.74 0.68 0.65 0.59 0.56 0.53 0.50
Wind_Speed
17 19 22 23 22 23 23 25 23 21 20 17 18 16 15 13 10 9 8 6 4 2 1 2 4 7 8 8 7 8 9 9
16 17 20 19 22 16 21 24 23 22 20 18 18 16 13 11 10 8 7 6 4 2 2 3 6 7 8 8 8 9 10 9
15 16 16 16 17 14 16 15 22 24 21 18 17 14 12 12 10 8 6 5 4 3 3 5 6 7 7 9 9 10 10 11
16 17 16 16 17 15 16 17 19 23 23 20 16 14 12 11 10 8 6 4 3 3 4 6 8 8 9 10 10 11 12 13
17 17 17 16 15 16 17 17 19 22 21 20 17 14 13 11 9 7 6 5 4 5 6 8 9 9 10 10 11 13 14 15
16 18 17 16 17 18 19 18 21 20 20 19 17 14 13 11 9 8 7 6 5 6 7 8 8 7 9 11 13 14 16 17
16 18 18 18 19 19 19 20 21 20 20 18 16 14 13 11 9 8 6 6 6 7 7 7 8 9 11 13 15 16 17 18
18 19 20 19 18 21 20 20 20 20 19 18 16 14 13 11 10 8 7 6 6 7 7 8 9 11 13 15 16 18 19 19
20 21 20 19 19 20 19 19 19 19 18 16 15 14 13 11 10 9 8 7 8 8 9 10 11 13 15 17 19 19 20 20
21 19 18 18 18 18 18 18 18 17 17 15 15 14 13 12 11 10 9 9 10 10 11 12 14 15 17 18 20 21 21 21
19 18 17 16 16 16 16 17 17 16 15 15 15 15 14 13 12 12 11 11 11 12 13 14 16 17 18 20 22 22 22 23
17 17 16 15 15 15 15 16 16 16 16 15 15 16 15 14 13 13 13 13 13 14 15 16 17 18 20 23 24 24 25 27
17 16 15 15 15 15 15 15 15 15 16 16 16 16 16 15 14 14 15 15 15 16 17 18 19 21 23 25 26 27 28 28
17 16 15 15 14 15 15 15 15 16 17 17 17 17 17 17 16 16 16 17 18 18 18 19 21 23 25 28 27 29 28 30
17 16 16 15 15 15 15 14 15 17 16 17 18 19 19 19 18 17 19 19 19 19 20 22 23 24 27 28 29 29 33 33
17 17 17 17 17 17 17 17 17 17 18 18 19 20 21 22 23 22 22 21 21 21 23 24 25 27 29 31 32 32 32 35
18 18 18 18 19 19 19 19 18 18 20 21 21 22 23 24 24 25 24 24 24 24 25 26 27 29 33 32 34 35 36 37
19 19 19 19 20 20 21 21 21 20 21 22 23 23 24 25 26 27 26 26 26 26 27 28 30 31 33 33 34 35 37 38
20 20 20 20 21 21 22 22 23 24 24 25 25 25 25 26 28 28 28 28 27 28 28 30 31 32 34 35 36 37 37 39
20 21 21 21 20 21 21 22 24 24 25 24 25 26 27 28 28 28 29 28 28 29 29 31 31 34 35 36 37 38 39 40
Wind_Direction
182 185 187 196 191 192 197 193 190 186 181 176 172 169 167 170 171 170 167 171 180 182 264 333 340 337 336 336 343 346 343 343
193 192 178 183 171 190 187 186 188 184 178 178 175 173 174 176 175 178 181 188 196 221 266 312 329 334 334 339 335 336 335 337
195 192 196 212 202 189 190 196 197 190 186 180 178 181 181 181 186 183 189 195 212 236 283 312 327 332 336 338 334 333 334 331
212 209 215 212 217 210 201 187 188 192 193 186 183 187 190 184 186 187 193 208 222 261 288 306 315 315 322 327 328 328 328 326
215 210 205 211 214 200 193 191 185 184 187 189 189 185 184 185 189 198 202 217 248 266 291 308 315 311 317 324 325 326 324 323
203 202 207 207 193 189 185 189 184 185 185 186 188 188 191 194 199 207 217 242 258 281 296 312 320 322 321 323 324 323 322 321
203 203 195 183 182 186 182 179 179 181 185 185 187 191 192 197 206 217 233 251 274 290 298 308 312 316 319 320 321 321 320 318
178 176 175 172 173 172 173 176 180 180 180 183 187 193 200 206 213 226 245 262 275 286 294 298 305 310 314 316 317 317 317 316
158 160 163 167 170 171 171 173 175 180 184 188 194 200 207 214 224 235 246 264 276 284 289 295 301 307 309 311 313 314 313 314
158 159 161 165 167 173 176 181 183 188 193 199 205 212 218 224 231 238 250 264 275 281 286 293 299 304 306 308 310 311 311 312
166 168 170 174 178 181 185 188 192 196 201 209 216 222 227 232 236 243 253 267 274 280 286 292 298 302 305 306 309 308 308 308
178 180 182 185 186 189 192 196 201 207 213 220 225 229 230 231 239 247 257 268 275 281 285 291 297 300 304 307 305 305 306 305
184 186 189 190 191 194 199 205 211 218 223 228 229 231 230 235 245 252 262 269 275 278 284 289 294 300 304 307 307 305 305 304
190 192 195 198 201 205 211 217 222 227 231 233 234 234 236 240 248 254 262 271 276 278 282 289 294 299 303 307 309 307 306 304
202 204 206 209 212 216 220 226 230 232 235 237 239 241 242 244 251 258 265 272 275 277 283 288 294 298 302 306 308 307 309 305
210 214 218 221 222 226 229 232 237 239 240 243 247 248 249 251 253 260 268 271 275 280 284 289 292 296 303 304 303 305 308 309
218 222 227 230 231 234 237 240 245 247 247 249 252 255 256 257 255 262 268 270 275 280 284 288 293 297 302 303 303 302 304 305
226 229 233 235 237 239 242 244 246 249 251 253 256 260 260 259 261 263 267 270 275 279 284 288 293 297 299 302 301 303 304 305
230 233 237 238 240 244 245 248 250 256 257 260 258 262 263 265 263 263 266 269 273 279 284 289 294 298 298 300 301 302 303 304
233 236 239 240 242 246 249 252 255 262 264 262 264 266 268 267 263 264 267 268 274 281 285 287 292 299 299 300 301 301 303 303